Location: Cabeza Gorda
(40.0667°N, 4.9667°W)
Time: 19:03:20
(UTC+00:00)

Cosmos 1500 Rocket - Pass Details

Date: 15 January 2026
Orbit: 597 x 623 km, 82.5° (Epoch: 10 February)

Event Time Altitude Azimuth Distance (km) Brightness Sun altitude
Rises 06:09:21 0° 197° (SSW) 2,843 6.9 -17.1°
Reaches altitude 10° 06:11:35 10° 202° (SSW) 1,949 6.0 -16.7°
Maximum altitude 06:15:48 54° 280° (W) 743 3.6 -15.9°
Drops below altitude 10° 06:20:06 10° 358° (N) 1,979 6.0 -15.1°
Sets 06:22:23 0° 3° (N) 2,893 6.9 -14.7°
